Theta_e
322 321 321 322 322 321 321 320 320 321 321 322 321 321 325 324 324 331 342 340 337 339 338 337 337 336 336 335 335 333 333 333 333 333 331 331 332 332 331 330 330 330 331 330 331 331 332 334 338 340 340 342 345 348 349 349 350 350 350 351 352 352 352 352 352 353 353 353 353 355 356 356 356 356 353 349 348 346 345 346 347 347 345 345 346 347 348
320 321 320 320 321 320 320 321 321 321 321 321 321 322 323 324 330 338 341 339 339 338 337 337 336 335 334 333 333 332 331 331 331 330 330 330 329 329 329 329 329 328 328 328 328 329 330 331 334 338 339 341 343 344 344 346 348 349 349 350 351 351 351 351 352 352 352 353 353 354 356 356 357 357 354 351 349 347 345 346 346 347 346 344 344 345 347
318 320 319 319 320 319 319 320 321 320 320 320 321 323 323 325 332 337 338 339 340 339 336 336 335 333 333 332 331 332 330 330 329 329 329 328 328 328 327 328 327 326 327 327 326 326 327 326 328 331 334 336 340 343 344 344 346 347 347 348 349 349 350 351 351 351 351 352 352 352 354 354 354 354 354 353 352 350 349 348 346 346 346 345 344 344 344
317 318 319 318 318 319 317 318 320 319 318 320 320 322 324 324 329 334 337 337 338 338 336 335 333 333 333 331 331 331 330 329 329 328 327 327 327 327 326 326 326 325 325 325 325 325 325 324 324 325 327 328 331 336 341 342 344 346 345 346 347 348 350 351 351 351 351 351 352 352 353 352 352 353 354 355 354 352 351 351 349 347 347 346 345 344 344
316 317 319 318 317 316 316 317 320 320 319 320 320 322 324 323 327 335 337 336 337 337 335 333 332 332 332 331 330 330 329 329 328 327 326 326 326 326 326 325 325 325 324 324 324 325 325 324 323 322 324 324 325 329 333 334 337 342 344 344 346 347 348 349 350 351 350 351 352 352 352 351 351 353 355 355 355 353 352 352 351 350 349 348 347 346 345
316 317 318 318 316 315 316 320 323 322 320 320 320 322 325 326 329 334 336 336 336 335 333 333 333 332 331 331 330 329 329 328 327 326 326 325 325 325 324 324 325 324 324 322 323 324 324 324 324 322 322 323 323 325 327 326 329 335 338 339 341 344 346 347 347 348 349 350 351 352 352 351 352 353 354 355 355 354 354 352 352 352 351 350 349 349 347
316 317 318 317 316 317 321 324 324 324 324 323 323 325 327 327 331 334 335 334 334 334 333 332 332 331 330 330 329 329 328 328 327 326 325 324 324 324 323 324 324 323 323 321 321 323 323 324 323 320 320 322 322 323 324 322 324 331 334 335 335 335 339 343 343 344 346 346 348 350 350 351 352 352 352 353 353 353 353 353 352 352 351 351 350 350 350
318 318 317 318 319 321 324 324 323 323 325 324 325 326 326 327 329 332 334 333 333 333 332 332 331 330 329 329 328 327 326 326 325 325 324 324 323 322 322 322 322 322 322 320 320 321 322 324 323 319 319 321 322 323 322 320 321 327 332 334 332 326 329 335 337 338 340 342 344 347 348 349 351 350 351 351 351 352 353 353 353 352 351 351 349 348 349
318 316 316 320 322 322 323 325 324 323 324 324 324 324 325 326 328 331 332 332 332 332 331 330 330 329 328 328 328 326 324 323 323 323 323 322 322 321 321 320 321 322 320 319 320 320 321 322 321 319 320 321 321 323 323 321 321 323 326 329 325 318 319 326 327 330 334 336 337 341 345 347 348 349 350 350 350 352 353 352 352 352 351 350 349 349 348
318 316 316 318 320 319 321 324 324 323 323 324 324 323 324 326 328 329 331 330 330 330 329 330 329 328 328 328 327 325 323 322 321 321 321 321 321 320 319 319 320 319 317 317 319 319 320 321 320 319 320 320 321 323 323 321 322 322 323 324 319 314 314 316 318 323 327 329 329 332 336 342 346 346 348 348 349 351 352 354 353 352 352 351 351 351 351
318 317 316 316 318 321 323 324 324 323 323 323 322 321 322 326 327 328 329 329 329 328 328 328 328 327 327 327 327 325 322 321 322 321 320 320 319 318 318 318 318 317 316 317 318 318 319 319 318 318 319 320 322 323 321 319 321 323 323 322 318 314 313 313 314 316 320 323 326 327 329 336 342 345 346 348 349 350 351 352 353 353 352 351 351 352 351
316 317 315 316 321 325 326 323 322 320 321 321 319 317 319 324 327 326 327 327 326 326 326 326 326 326 325 326 325 323 321 321 321 320 319 318 318 317 317 317 315 315 316 317 317 317 317 317 317 318 319 320 321 321 318 319 322 324 323 322 317 314 313 313 313 314 314 316 320 322 324 328 334 340 344 346 349 350 351 351 352 353 353 353 353 352 352
314 315 314 317 323 326 324 321 319 318 318 317 317 318 321 325 326 325 325 325 324 324 324 324 324 325 325 324 323 321 320 320 319 318 318 317 316 316 316 315 315 315 316 316 316 316 316 316 316 317 318 319 320 319 318 320 322 321 319 317 315 313 313 312 312 313 313 314 314 316 319 321 324 330 335 337 340 344 346 348 349 349 350 350 351 352 352
314 315 313 316 323 326 322 319 319 317 316 317 319 323 324 324 323 324 324 323 323 323 323 323 323 323 322 322 321 319 318 318 318 317 317 317 317 316 316 315 315 315 315 315 316 316 315 315 316 317 317 318 317 315 316 319 321 321 319 316 314 313 312 311 312 312 312 313 314 314 315 316 318 321 323 325 328 330 332 335 338 339 340 341 343 346 349
315 315 313 315 321 324 321 320 319 317 317 321 324 325 324 322 322 323 322 322 322 322 322 321 321 320 320 320 319 318 317 317 317 317 317 317 317 316 316 315 316 316 315 315 315 315 315 315 316 316 316 316 315 316 318 320 321 321 319 316 313 311 311 311 311 311 311 312 312 313 313 314 315 316 318 320 322 323 324 325 325 327 328 329 331 334 338
315 315 316 317 321 323 321 320 320 319 320 323 324 323 322 321 321 322 321 320 321 321 320 320 320 319 319 318 318 317 316 316 316 317 317 317 317 317 316 316 316 316 315 314 313 314 315 316 314 313 314 316 318 320 321 319 316 315 314 313 313 313 313 313 312 310 310 311 311 312 313 313 314 316 317 318 319 319 320 321 321 322 322 323 325 327 329
317 318 319 320 321 322 321 320 321 321 322 322 322 321 321 320 319 320 320 319 319 319 319 319 318 318 318 317 316 316 316 316 317 317 317 318 318 318 317 317 317 316 315 314 313 312 313 313 312 312 312 314 317 318 316 313 311 310 311 312 314 313 312 312 311 310 310 310 310 311 312 312 313 315 315 315 316 317 318 321 325 328 329 330 330 332 335
318 318 320 321 322 321 320 320 322 322 321 321 320 320 320 319 318 318 319 319 318 318 317 317 317 317 317 317 316 316 316 317 317 317 317 317 317 317 317 317 317 316 316 315 315 314 311 310 310 312 311 311 311 311 309 308 308 309 309 309 310 310 311 312 312 312 312 312 312 313 313 312 312 312 313 314 315 318 321 328 334 338 339 340 342 343 346
317 317 319 320 321 320 320 320 321 321 319 318 317 317 318 319 318 317 318 319 319 317 317 316 316 316 317 316 316 316 316 317 317 317 317 317 317 317 317 316 316 316 316 316 316 315 313 310 309 308 308 308 308 307 306 305 307 308 310 311 313 314 316 317 317 318 318 318 318 318 319 318 317 318 320 321 323 326 331 336 341 344 344 345 346 347 348
317 317 318 319 319 319 319 319 320 320 318 317 317 316 316 318 318 317 317 318 317 317 316 316 316 315 315 316 316 317 316 317 317 317 316 316 316 316 315 315 315 315 315 315 315 315 315 313 311 309 307 307 306 305 305 306 306 307 310 313 316 318 319 320 320 321 322 323 322 322 322 322 323 324 325 324 325 327 331 336 341 343 344 346 347 347 347
319 318 318 318 319 318 319 318 319 319 318 318 318 317 316 317 318 318 317 317 316 316 316 315 316 316 315 316 317 316 316 316 316 315 315 315 315 315 314 314 314 314 314 315 315 315 315 315 314 313 312 310 309 308 308 310 311 311 312 313 314 316 318 321 322 322 323 323 323 324 324 324 324 325 326 327 327 328 331 335 337 337 337 338 337 335 332
321 320 320 320 320 319 318 318 318 318 318 318 318 318 317 317 317 317 317 317 316 316 316 316 316 316 316 316 316 316 316 315 315 315 314 314 314 314 314 313 313 313 313 314 314 314 314 314 315 315 315 314 314 313 314 314 314 314 315 315 314 315 318 321 322 322 323 324 323 323 323 322 321 320 321 322 324 326 328 328 326 324 321 319 317 317 316
321 321 319 319 320 321 320 319 318 318 317 317 317 318 318 317 317 316 316 316 316 316 316 316 315 316 316 316 315 315 315 314 314 314 314 313 313 313 312 312 312 312 312 312 313 313 314 314 314 314 315 315 315 315 315 315 315 315 316 316 316 316 318 319 320 320 320 322 322 323 322 321 320 320 321 320 320 319 319 317 316 314 313 314 315 316 315
321 320 319 318 319 320 320 320 319 319 318 317 317 317 317 317 317 316 316 316 316 316 316 316 315 315 315 314 314 314 314 313 313 313 313 312 312 312 311 311 311 312 312 312 312 312 313 313 313 314 314 314 314 314 315 314 315 315 315 315 316 316 317 317 318 318 318 319 320 322 322 322 321 321 322 321 320 318 317 316 316 318 322 325 324 320 315
319 320 319 318 318 319 319 319 319 319 318 318 317 316 316 316 317 316 316 316 316 315 315 315 315 314 314 313 313 313 313 313 312 312 312 311 311 311 311 311 311 311 311 311 311 312 312 312 312 313 313 313 313 313 314 314 314 314 314 315 315 316 316 316 317 317 318 319 320 321 321 322 322 321 321 322 322 321 321 323 323 322 323 323 321 318 319
318 319 319 318 318 318 318 318 318 319 318 318 318 317 316 316 316 316 316 316 316 316 315 315 314 313 313 313 313 312 312 312 312 311 311 311 311 311 311 311 311 310 310 311 311 311 311 311 311 312 312 312 313 313 313 313 314 314 314 314 314 315 315 316 316 316 317 318 319 320 320 321 322 322 322 322 323 323 324 325 324 321 320 321 324 327 329
319 319 318 318 318 318 318 318 318 318 318 318 318 318 317 316 315 316 316 316 316 315 315 315 314 313 312 312 312 312 312 312 311 311 311 311 311 310 310 310 310 310 310 310 310 310 310 311 311 311 312 312 312 312 313 313 313 313 314 314 314 314 315 316 316 316 316 317 318 319 319 320 322 323 322 322 323 323 324 325 325 324 324 325 327 329 329
318 318 318 318 318 317 318 318 319 318 318 318 317 316 316 316 316 316 316 315 315 315 315 314 313 313 313 313 312 312 312 311 311 311 311 311 310 310 310 310 310 310 310 310 310 310 310 310 311 311 311 311 311 312 312 312 313 313 313 313 314 314 314 315 315 316 316 317 317 318 319 320 320 322 323 324 325 326 326 325 325 326 325 324 323 325 327
317 317 317 318 318 318 318 319 319 318 317 317 316 316 316 316 316 316 316 316 316 315 315 314 313 312 312 312 312 312 311 311 311 310 310 310 310 309 309 309 309 309 309 310 310 310 310 310 311 311 311 311 311 311 311 311 311 312 312 312 313 313 314 314 315 315 316 316 317 317 318 319 320 321 322 322 323 324 325 325 325 325 325 325 324 325 326
317 317 317 318 318 317 317 318 319 318 318 316 316 316 316 316 316 316 316 316 316 315 314 313 313 312 312 312 311 311 311 310 310 310 310 309 309 309 309 309 309 309 309 310 310 310 310 310 311 311 310 310 310 310 310 311 311 311 311 312 312 313 313 313 314 314 314 315 316 316 317 318 319 320 321 321 322 323 324 325 325 325 325 326 325 324 325
317 317 317 318 318 318 318 318 318 317 317 316 316 317 316 316 316 316 316 316 315 315 314 312 312 312 312 311 311 311 311 310 310 310 309 309 308 308 309 309 309 310 310 310 310 310 310 310 310 310 310 310 310 310 310 309 310 311 311 312 312 313 313 313 314 314 315 315 315 315 316 317 317 318 320 321 322 324 325 326 326 326 326 326 327 328 330
317 317 318 318 318 318 317 317 317 316 316 316 316 317 317 316 316 316 316 316 315 314 313 312 312 311 311 311 311 311 310 310 309 309 308 308 308 309 309 310 310 310 310 309 309 309 309 309 309 309 309 309 309 309 308 308 309 310 311 312 312 313 312 313 314 315 316 316 315 315 316 316 316 317 317 318 320 321 323 324 326 327 327 328 328 329 330
316 317 317 317 318 318 317 315 315 316 316 316 317 317 317 316 316 316 316 315 314 313 312 311 311 311 311 311 311 310 310 309 309 308 308 308 309 309 309 309 309 308 308 308 307 307 307 307 307 307 307 307 307 307 308 308 309 310 310 311 312 312 311 311 313 315 316 316 316 316 316 316 317 317 318 318 318 319 319 320 321 323 325 326 326 326 327
315 316 316 317 317 317 316 315 314 314 315 315 316 316 316 316 316 315 314 313 313 312 312 311 311 311 311 310 310 310 309 308 308 308 309 309 309 308 308 308 307 306 306 306 305 305 305 305 306 306 306 306 307 308 308 308 309 309 310 310 311 311 311 310 312 314 315 316 316 316 316 316 317 318 318 319 319 320 320 321 321 321 323 323 324 325 326
315 316 316 316 315 316 316 316 316 314 314 315 316 317 316 316 316 314 313 312 312 312 311 311 311 311 311 310 309 309 308 308 308 309 309 308 308 307 306 306 306 305 305 305 305 305 305 305 306 306 306 306 307 307 307 307 308 308 309 309 310 311 311 310 311 312 314 315 316 316 317 316 317 317 318 318 319 320 321 321 322 323 324 325 326 327 327
316 317 317 315 314 313 314 314 315 314 314 314 314 315 315 315 315 313 312 312 312 311 311 311 311 310 310 309 309 309 309 309 308 308 308 307 307 306 305 305 305 304 304 304 305 305 305 305 305 305 305 306 306 306 306 306 307 307 308 308 309 310 310 310 310 312 313 314 315 316 316 316 317 317 318 318 319 320 321 322 322 324 325 326 326 327 327
315 316 316 314 313 313 314 314 314 314 314 313 313 313 314 314 313 313 312 311 311 311 310 311 310 310 309 309 309 309 308 308 307 307 307 306 306 305 305 304 304 304 304 304 305 305 304 304 304 304 304 305 305 305 305 306 306 306 307 307 308 309 309 310 310 311 312 313 314 315 315 316 316 317 317 318 318 319 320 321 322 323 323 324 325 326 326
314 314 315 314 312 313 313 314 314 314 313 313 313 313 313 313 312 312 311 311 311 311 310 310 309 309 309 309 308 308 307 307 306 306 306 305 305 305 304 304 304 304 304 304 304 304 303 303 303 303 304 304 304 304 305 305 306 306 306 307 307 308 308 309 309 310 311 312 314 315 316 316 317 317 317 318 318 319 319 320 321 321 322 323 324 325 324
312 313 313 313 312 311 312 313 313 313 313 313 313 314 313 312 312 311 311 311 311 310 310 309 309 309 308 308 307 307 307 306 306 305 305 304 304 304 304 304 304 304 304 303 303 303 303 303 303 303 303 303 303 303 304 304 305 305 305 306 306 306 307 308 309 309 310 311 313 315 315 316 316 317 317 318 318 319 320 321 320 321 322 323 323 323 323
311 311 312 312 312 312 312 313 313 313 312 312 313 313 312 312 311 311 311 311 310 310 309 309 309 308 308 307 307 306 306 305 305 305 304 304 304 304 304 303 304 303 303 302 302 302 302 302 302 302 302 302 302 302 303 303 304 304 304 305 305 305 306 307 307 308 309 310 311 313 314 315 316 317 317 317 318 318 319 320 321 321 321 321 321 322 323
309 310 310 310 311 311 311 313 313 312 311 311 312 312 311 311 311 311 311 310 310 309 309 308 308 307 307 306 306 306 305 305 305 305 304 304 304 303 303 303 303 303 302 302 302 302 302 302 302 301 301 301 301 302 302 302 303 303 303 304 304 305 305 306 307 308 309 310 310 311 312 314 316 317 317 317 317 317 318 320 321 321 320 320 320 321 322
309 309 309 310 310 310 311 312 313 312 310 310 310 310 310 310 310 310 310 310 309 308 308 307 307 306 306 305 305 305 305 305 304 304 304 304 303 303 303 303 303 302 302 301 302 301 301 301 301 301 301 300 300 301 301 301 302 302 303 303 304 304 305 306 307 308 309 310 311 311 312 314 315 316 317 318 317 317 318 320 321 321 320 320 320 321 321
308 308 308 309 311 311 310 311 311 311 310 309 309 309 310 310 309 309 309 309 308 308 307 307 306 305 305 305 305 304 304 304 304 304 304 303 303 303 303 303 302 302 301 301 301 301 301 301 300 300 300 300 300 300 300 301 301 301 302 303 303 304 305 306 306 307 308 309 311 312 312 314 314 316 317 318 318 318 319 319 319 319 319 319 320 319 319
307 307 307 308 310 310 309 309 310 310 309 308 307 308 308 308 308 308 308 307 307 307 306 306 306 305 305 305 304 304 304 304 304 303 303 303 303 303 302 302 302 301 301 300 301 301 300 300 300 300 299 299 299 299 300 300 300 301 301 302 303 303 304 305 306 307 308 309 310 311 312 313 314 315 316 316 317 317 317 317 317 317 318 318 318 317 317
306 306 306 307 308 309 309 309 309 309 309 308 307 307 308 308 308 308 308 307 307 306 306 305 305 305 305 304 304 304 304 304 303 303 303 303 303 302 302 302 301 301 300 299 300 300 299 299 300 299 299 299 299 299 299 299 299 300 300 301 302 302 303 304 305 306 307 308 309 310 311 312 312 313 314 314 315 315 315 315 315 315 315 315 315 315 315
306 305 305 307 308 309 309 309 308 308 309 309 308 307 307 308 308 307 307 306 306 305 305 305 305 305 304 304 304 304 304 303 303 303 303 302 302 302 302 302 301 300 299 299 300 300 299 299 299 299 299 299 298 298 298 298 299 299 299 300 301 301 302 303 304 305 306 306 307 308 310 310 311 311 312 312 313 313 313 313 313 313 312 312 312 312 311
306 306 306 307 308 309 309 308 308 308 308 308 307 306 306 307 307 306 306 306 305 305 305 305 305 305 304 304 304 304 304 304 303 303 303 302 302 302 301 301 301 300 299 299 299 299 299 299 299 299 298 298 298 298 297 298 298 298 299 299 300 300 301 302 302 303 304 305 306 307 307 308 308 309 309 310 310 310 310 310 309 309 309 309 309 308 308
306 307 307 307 308 308 308 307 308 308 308 307 307 306 306 306 307 306 306 305 305 305 305 305 305 305 304 304 304 304 304 303 303 303 303 302 302 301 301 301 301 300 300 299 299 299 299 299 298 298 298 298 298 297 297 297 297 298 298 298 299 299 300 300 301 302 302 303 304 304 305 306 306 306 306 307 307 306 306 306 306 306 306 306 305 305 305
306 307 307 307 307 307 307 307 307 307 307 307 307 306 306 306 306 306 306 306 305 305 305 305 305 304 304 304 304 304 303 303 302 302 302 302 301 301 301 301 301 300 300 299 299 298 298 298 298 298 298 298 297 297 297 297 297 297 297 298 298 298 299 299 299 300 300 301 302 302 303 303 304 304 304 304 304 304 304 304 304 304 303 303 303 303 303
306 306 306 306 306 307 307 306 306 306 306 306 306 306 306 306 306 306 305 305 305 305 305 304 304 304 304 303 303 303 303 302 302 302 302 302 302 301 301 300 300 299 299 299 298 298 298 298 298 298 298 298 297 297 297 297 297 297 297 297 297 297 297 298 298 298 299 299 300 300 300 301 302 302 302 302 302 302 302 302 302 302 301 301 301 301 301
305 305 305 305 305 305 306 306 306 306 305 305 306 306 306 306 306 306 305 305 305 305 305 304 304 304 303 303 303 303 303 303 302 302 302 301 301 301 300 300 300 299 299 298 297 297 297 298 298 298 297 297 297 297 297 297 297 297 296 296 296 296 296 296 297 297 297 298 298 298 299 299 300 300 300 300 300 300 301 300 300 300 300 300 300 300 300
305 305 305 304 304 305 305 305 306 306 306 306 306 306 306 306 306 306 305 305 305 305 304 304 304 304 303 303 303 303 303 302 302 302 302 301 301 301 300 299 299 299 298 298 297 296 296 297 297 297 297 297 297 296 296 296 296 296 296 295 295 295 295 295 295 296 296 296 297 297 297 298 298 299 299 299 299 299 299 299 299 299 299 299 299 299 298
Wind_Speed
8 5 8 8 8 12 8 10 12 7 6 11 11 9 11 9 1 7 11 12 12 14 15 15 14 14 13 12 12 14 16 14 13 15 15 15 16 16 17 18 19 19 19 19 19 19 19 16 13 11 10 10 11 13 14 14 14 13 14 15 14 13 13 13 16 20 18 15 15 16 18 20 19 20 23 23 21 21 21 20 20 20 20 19 19 20 20
6 5 8 8 7 11 9 1 2 3 5 10 11 12 15 9 6 14 15 13 11 11 13 14 15 16 15 13 11 14 16 13 11 13 15 15 16 16 17 18 18 18 18 19 20 20 19 17 14 12 10 8 7 9 9 9 11 11 12 14 13 12 12 11 11 11 11 11 12 14 15 16 17 18 23 25 23 23 21 20 20 20 19 20 20 20 20
4 4 5 7 8 8 9 4 2 2 7 8 7 8 10 4 7 12 13 13 10 8 13 16 15 16 15 12 11 12 14 12 10 12 14 14 15 15 16 17 17 18 18 18 19 19 19 19 16 14 13 9 5 6 6 7 9 11 11 12 11 9 9 10 11 11 10 10 12 13 12 14 16 17 20 22 23 23 20 18 21 21 20 20 21 20 20
6 5 5 7 8 6 10 10 5 5 8 7 5 4 5 5 6 11 11 10 7 9 16 18 15 15 14 13 12 12 11 10 10 11 12 13 14 15 15 16 16 16 17 17 17 17 17 17 17 16 15 13 10 5 3 4 6 9 9 7 8 9 8 7 8 10 12 12 12 12 9 10 14 16 18 20 22 23 20 18 20 23 23 23 24 23 22
7 8 7 5 5 5 8 8 6 8 10 8 7 4 2 6 4 8 10 8 8 12 16 15 14 14 14 13 13 11 9 8 9 10 11 12 13 14 14 15 15 15 16 16 16 16 16 15 16 15 14 13 13 11 7 4 1 4 6 5 6 8 8 6 5 7 9 11 12 12 10 10 14 15 16 18 19 21 21 20 22 25 25 26 27 28 27
6 11 9 5 4 6 4 3 7 6 7 10 9 4 2 5 3 8 10 10 11 14 15 14 14 15 15 15 15 12 10 7 7 9 10 11 12 13 13 14 14 15 15 15 15 15 14 13 13 14 14 13 12 12 10 9 9 6 3 1 2 4 5 5 6 6 7 8 10 11 12 12 13 13 13 14 15 16 19 21 24 26 26 27 28 29 30
6 7 7 7 7 4 2 7 9 9 5 1 1 4 4 3 7 15 17 14 14 14 15 16 18 19 18 17 15 11 9 6 6 7 8 10 10 11 12 12 12 13 14 15 15 14 13 12 11 12 14 12 11 11 10 11 13 13 11 10 7 5 4 5 5 5 5 6 6 7 11 12 13 14 14 15 16 17 18 21 23 24 26 27 28 28 29
5 4 6 6 3 1 4 5 5 6 6 4 5 5 3 3 7 12 16 15 15 15 16 18 20 20 18 15 13 10 7 5 6 7 7 8 9 10 11 11 11 11 12 13 13 13 12 10 9 12 13 11 10 10 10 12 15 14 11 10 11 12 8 5 4 4 3 4 4 4 9 10 12 13 14 15 16 18 19 21 23 24 24 26 27 27 27
5 7 7 4 1 1 1 2 2 3 2 2 1 1 2 4 5 9 13 13 14 15 16 19 21 20 16 11 8 9 7 5 6 7 7 7 8 9 9 9 10 10 10 12 12 11 11 8 9 12 13 11 10 9 9 11 13 12 10 7 10 14 13 10 9 9 7 7 7 5 6 9 11 13 14 14 14 15 17 19 22 23 24 25 26 27 27
4 6 7 5 4 5 4 5 5 3 4 5 4 1 3 3 6 11 13 12 14 15 15 17 19 18 13 8 7 11 10 6 6 7 7 7 8 8 8 8 9 9 10 11 10 10 9 8 10 12 12 11 9 8 8 9 10 10 8 7 11 14 15 14 13 11 8 8 9 9 7 4 7 11 14 14 14 14 15 18 20 22 24 26 27 27 27
5 5 6 6 5 2 2 6 7 5 5 7 4 3 6 3 7 12 13 13 16 18 18 17 15 12 8 5 10 15 12 8 7 6 6 6 7 7 8 8 8 9 11 10 9 9 8 8 11 12 10 9 9 7 9 9 9 8 7 9 13 14 15 15 14 12 10 8 8 10 10 6 5 9 11 13 15 16 16 17 19 20 22 24 26 27 28
6 5 6 5 1 3 5 6 6 5 4 3 1 5 6 8 10 11 11 12 13 13 14 14 10 5 1 3 11 16 13 9 8 5 4 5 5 6 7 8 8 9 10 9 8 9 10 10 11 10 8 8 8 9 12 11 9 7 7 9 14 16 16 15 15 13 13 11 9 9 9 9 7 7 8 11 14 17 17 18 19 20 21 23 25 26 26
7 6 7 4 2 5 5 5 6 5 4 4 5 2 2 9 11 9 9 11 10 8 7 7 6 8 8 7 10 12 10 8 7 4 4 4 5 5 6 9 9 8 7 8 8 9 10 11 11 9 9 9 9 11 12 11 9 10 12 15 17 18 18 17 15 15 15 14 12 10 9 9 9 9 8 9 11 13 15 18 19 20 21 22 24 26 25
6 5 6 4 2 5 6 6 5 4 3 3 3 3 4 5 9 8 6 8 9 8 7 7 10 12 11 7 6 8 6 5 4 3 3 4 4 5 7 8 8 7 7 8 8 9 10 10 10 9 10 10 12 14 13 12 11 12 14 18 20 21 21 20 18 17 17 16 16 15 13 12 12 12 11 11 11 11 13 16 17 19 20 22 23 25 26
5 6 6 4 1 4 8 7 3 2 2 2 5 8 7 8 8 5 5 4 8 11 9 7 7 9 8 6 5 4 3 4 3 2 3 4 5 6 7 8 8 9 9 9 10 10 10 11 10 10 11 11 13 14 13 12 12 12 14 18 21 23 24 23 21 20 19 18 18 17 17 16 16 16 15 15 14 15 16 17 18 19 20 20 22 23 24
5 5 4 2 1 6 8 5 2 4 5 6 7 8 9 8 6 4 7 8 8 11 9 6 4 5 5 5 4 2 1 2 2 2 4 5 6 7 7 8 9 10 10 11 12 12 11 12 12 12 12 12 12 12 11 13 15 16 18 19 20 22 23 23 24 24 23 21 19 19 19 19 18 18 18 18 19 19 19 20 20 20 20 20 20 20 21
4 3 0 1 5 8 7 4 5 9 9 8 7 7 9 8 6 5 5 6 8 9 8 6 4 3 3 3 2 2 1 1 2 3 4 4 5 6 7 8 9 10 12 13 14 13 13 13 13 13 13 13 13 13 14 16 18 19 19 19 19 21 23 24 25 26 26 25 23 22 21 20 19 19 20 21 21 21 22 22 21 19 19 19 18 18 18
5 4 3 6 7 7 7 7 8 9 8 7 7 7 8 9 7 5 5 7 8 7 6 6 5 4 4 3 2 2 1 1 1 3 3 4 5 6 7 8 10 11 12 13 14 14 14 13 13 13 13 14 15 16 17 18 19 19 20 20 21 21 22 23 25 26 26 25 24 23 22 22 23 22 21 22 22 21 20 20 20 18 17 17 16 15 15
5 4 5 8 8 9 9 9 9 9 8 8 8 6 6 8 9 7 6 8 9 8 6 5 4 4 4 4 3 1 1 1 2 2 3 4 6 7 8 9 10 12 13 13 14 15 16 16 16 15 15 16 16 17 18 19 19 20 20 21 21 21 20 21 22 22 21 20 19 19 20 21 22 21 18 18 19 19 18 18 18 17 15 15 14 15 16
7 4 3 5 7 8 9 10 10 10 9 9 7 7 6 7 9 9 8 8 9 8 7 6 5 4 4 4 3 3 2 1 1 2 3 4 6 7 8 10 11 12 12 13 15 16 17 18 19 18 18 18 18 18 18 19 19 21 21 21 21 21 19 18 18 17 17 16 16 16 17 17 17 17 17 16 17 18 17 15 15 14 12 12 13 15 19
8 6 4 4 5 7 9 11 11 10 10 9 7 6 7 8 9 10 9 8 8 7 6 7 6 5 4 3 3 3 2 2 2 4 4 5 6 7 9 10 10 11 12 13 15 16 17 18 19 19 19 20 20 19 19 18 19 20 21 21 22 22 21 18 17 16 15 15 15 15 14 15 16 17 17 16 18 19 19 19 20 20 20 20 21 23 26
5 2 4 6 4 4 8 10 11 11 11 11 11 10 10 10 11 11 9 8 8 7 6 6 6 5 4 3 3 3 3 4 4 5 5 6 7 8 8 9 10 11 12 14 15 16 17 17 18 18 19 19 19 19 18 18 19 19 20 21 22 23 21 19 17 16 16 16 16 17 17 19 21 22 23 22 23 25 27 28 28 29 30 32 32 31 32
5 3 4 7 8 6 4 4 7 11 11 12 14 16 17 14 12 12 12 11 9 8 7 6 6 6 6 5 4 4 5 5 5 6 7 7 8 9 10 10 11 12 13 14 15 16 16 17 17 17 17 17 18 18 18 18 19 20 20 21 22 22 22 20 20 20 20 19 20 20 21 22 23 25 27 29 29 30 32 34 36 35 34 33 31 30 31
9 8 6 4 7 10 8 6 5 7 9 12 13 15 17 15 13 13 14 13 12 11 10 9 8 8 7 6 6 6 6 6 6 7 8 9 10 11 12 12 13 14 14 14 15 15 16 16 17 17 18 18 18 18 18 19 20 20 21 22 23 23 23 23 23 23 23 22 22 22 22 23 24 24 27 30 33 34 34 34 34 30 26 24 26 29 32
12 12 9 7 9 12 11 10 10 9 10 12 13 13 15 15 14 14 14 13 13 13 11 10 10 9 8 7 8 8 8 8 8 8 9 11 12 12 13 14 14 14 15 15 15 16 16 17 18 18 19 19 18 19 19 19 20 21 22 22 23 24 25 25 25 25 24 24 24 23 23 24 25 25 26 27 29 32 32 30 28 27 27 28 30 31 31
14 15 14 14 15 16 14 14 14 13 13 14 14 13 14 14 15 16 15 15 14 13 12 11 11 10 10 9 9 8 8 8 9 10 11 13 13 13 14 14 15 16 17 17 17 17 18 19 19 19 20 19 18 19 19 19 20 21 22 23 24 25 25 26 28 28 28 28 27 26 26 26 26 26 26 26 27 30 31 31 32 33 33 30 27 25 25
12 12 13 14 16 18 19 18 16 15 16 17 16 14 14 14 15 16 16 16 15 14 13 13 12 11 10 9 7 8 9 9 10 11 11 12 14 14 15 16 16 17 18 19 19 19 19 19 20 20 20 19 19 19 19 19 20 20 21 22 24 24 25 26 27 28 28 28 28 27 27 27 27 27 27 27 27 28 29 29 31 32 30 27 24 24 26
11 11 12 13 14 15 15 15 14 15 17 18 18 16 15 15 15 16 17 17 15 14 13 14 13 12 10 7 7 8 10 10 10 10 11 12 13 15 16 17 17 18 19 20 20 20 20 20 20 21 20 20 20 20 20 20 21 22 22 22 23 24 25 26 27 27 27 27 28 28 28 27 27 26 26 25 24 26 27 28 29 30 31 31 29 28 27
12 12 12 14 15 15 13 12 12 13 16 17 18 16 16 17 19 19 18 18 16 15 15 15 14 12 9 8 9 12 11 8 7 8 11 13 13 14 15 16 17 18 20 20 20 20 21 20 21 21 20 19 20 20 20 21 22 23 24 24 24 25 25 26 26 27 28 28 28 28 28 28 28 28 29 28 28 27 28 28 29 30 31 31 29 28 27
12 13 13 14 15 14 14 14 14 14 15 17 18 17 16 18 20 20 19 19 18 18 16 14 12 11 9 9 11 13 13 10 8 9 11 13 14 15 15 16 17 18 20 20 19 20 20 20 21 21 20 19 21 22 22 22 23 24 24 25 25 26 27 27 27 29 31 31 31 30 29 29 28 28 28 29 29 29 29 29 30 30 30 30 30 29 28
12 12 13 13 13 13 13 15 16 16 16 17 18 19 19 20 20 20 19 19 19 17 13 9 8 8 8 10 10 8 8 8 8 10 11 13 14 14 14 15 17 18 18 18 17 17 18 18 19 20 20 20 21 23 23 25 25 25 25 26 26 27 28 29 29 30 31 32 31 31 32 32 31 30 29 28 27 26 26 27 28 28 28 28 27 26 24
13 12 12 13 12 13 14 16 16 16 17 18 19 19 20 21 20 20 19 18 18 17 12 9 8 8 8 8 5 4 5 8 10 12 13 13 14 14 14 15 16 16 16 16 17 18 20 22 22 22 22 22 23 24 25 26 26 27 27 27 26 27 28 29 30 30 29 29 29 30 31 31 32 32 33 33 32 30 28 27 26 26 26 26 25 24 23
14 12 12 12 10 11 14 17 17 17 19 20 19 18 19 20 19 18 17 16 15 13 11 10 11 10 8 5 3 4 7 9 11 12 12 13 13 13 13 14 15 15 16 17 17 19 21 24 25 26 26 25 25 25 25 26 27 28 29 28 27 29 31 32 31 30 28 27 28 29 30 31 30 30 32 33 34 35 35 34 32 30 29 29 28 27 26
16 15 15 14 13 12 14 16 16 18 20 20 18 18 18 19 18 17 16 14 12 11 9 9 9 8 7 5 6 7 9 10 11 12 11 12 12 12 13 15 17 17 16 16 17 18 19 20 22 23 23 23 23 24 25 26 27 28 29 29 29 31 33 33 32 31 30 28 28 29 31 32 32 31 31 31 31 31 32 33 33 32 32 32 31 29 27
15 15 15 15 15 14 14 15 16 18 19 18 17 17 19 19 18 16 15 14 12 11 10 7 5 4 4 5 7 9 10 10 11 11 11 11 13 15 16 17 17 16 16 16 17 17 18 18 19 19 20 22 23 24 25 26 27 27 29 30 30 31 33 34 34 34 33 32 31 30 29 30 31 32 31 32 32 32 32 32 32 31 30 29 28 28 28
14 13 14 15 16 16 16 16 17 18 19 20 18 17 19 20 18 17 15 14 13 12 10 7 5 4 5 6 7 8 9 9 9 10 10 11 12 15 16 15 14 14 15 16 15 15 16 18 18 19 21 23 25 25 26 26 27 28 29 30 31 32 33 34 35 35 35 35 34 33 31 30 31 33 33 34 34 34 34 33 33 32 31 30 29 28 27
14 13 13 14 16 17 17 17 18 19 19 19 20 19 20 20 18 16 14 13 13 12 10 8 7 6 6 6 6 7 7 8 8 9 10 10 11 13 14 13 13 14 15 14 14 14 16 18 19 20 22 23 24 24 24 24 25 27 29 30 31 32 33 34 35 37 37 35 34 34 34 33 32 33 34 36 38 39 39 37 37 37 36 34 31 28 26
14 13 13 14 15 16 16 16 18 20 19 18 19 20 19 18 16 13 11 10 11 11 10 9 7 6 5 6 6 6 7 7 8 9 10 10 10 11 13 13 12 12 13 13 15 16 17 18 19 21 22 23 22 22 23 23 24 26 28 29 31 32 33 33 33 34 35 35 33 32 33 34 34 35 35 36 38 40 39 38 37 37 35 32 29 27 27
14 13 13 13 15 15 14 14 16 18 18 19 19 17 16 14 12 12 11 11 10 9 8 8 7 5 5 6 6 6 6 7 7 9 10 10 9 11 12 12 11 11 13 15 16 17 17 18 20 21 21 21 21 22 22 23 23 25 28 30 31 31 32 32 32 32 33 34 34 32 32 33 35 36 38 39 38 36 34 35 35 33 31 29 28 27 27
14 14 13 13 13 13 12 12 14 14 16 17 15 13 16 15 12 12 13 11 10 9 8 7 7 5 5 5 5 5 6 6 7 8 9 8 9 10 11 10 10 12 14 16 18 18 18 19 20 20 20 20 21 22 22 23 24 26 28 29 29 29 30 31 31 32 33 33 33 33 33 32 32 33 37 40 39 36 34 34 33 31 30 29 29 28 27
15 15 13 12 13 14 13 12 13 12 14 14 11 10 15 15 13 13 13 11 10 10 8 6 7 6 4 4 4 5 5 5 6 7 7 7 8 10 10 10 11 14 17 18 18 18 18 18 19 18 18 19 21 22 23 25 27 28 27 27 27 28 28 28 29 30 31 31 32 32 32 32 31 31 32 34 37 38 37 31 26 26 29 30 29 29 29
16 15 14 13 12 12 11 11 12 12 13 12 8 9 14 16 14 14 14 12 10 9 7 5 6 6 4 3 3 3 4 5 5 6 6 7 8 9 10 10 11 14 16 17 16 16 16 17 17 17 18 21 23 24 25 26 26 25 24 24 25 26 26 26 27 28 28 29 29 29 29 30 31 30 27 26 28 31 31 25 21 24 29 30 30 31 32
16 16 15 13 11 10 10 10 11 13 13 14 14 14 16 16 15 15 14 12 10 8 7 5 4 3 2 1 2 3 4 4 5 5 6 7 8 9 11 12 12 13 15 15 15 14 15 15 16 18 21 23 25 24 24 23 22 21 21 22 23 24 24 25 25 26 26 26 26 27 27 27 28 28 26 24 22 21 20 18 19 22 26 28 29 31 33
18 17 16 13 11 10 10 10 10 11 13 15 15 13 13 14 14 13 12 11 9 8 7 6 4 3 2 1 2 3 3 4 4 5 6 7 8 9 11 13 13 14 16 16 14 14 15 15 16 20 24 25 24 23 22 20 19 19 19 20 21 22 23 23 22 23 23 22 22 23 23 23 24 24 23 22 21 20 19 19 20 23 26 28 30 32 33
19 19 18 15 11 9 9 9 11 13 14 15 16 14 13 13 13 12 12 11 9 8 7 6 5 3 2 1 1 2 3 3 4 4 5 7 8 9 10 10 12 16 20 19 16 14 16 18 19 22 24 25 24 23 22 20 18 18 19 20 20 21 21 21 21 21 19 18 17 18 18 19 21 21 22 22 22 22 22 23 24 26 27 28 29 30 30
17 16 14 11 7 7 9 10 12 15 15 15 16 16 14 13 13 13 12 10 9 8 7 6 4 3 2 1 1 2 3 4 4 4 4 6 8 9 10 11 13 17 21 20 17 14 16 19 21 23 24 25 25 25 22 19 18 17 18 19 19 20 19 20 20 19 18 16 16 17 17 17 18 19 21 22 22 22 23 24 25 25 26 26 27 28 27
14 12 10 7 6 7 7 10 15 17 16 15 16 15 14 13 13 12 11 10 9 8 7 5 3 3 2 0 1 2 2 3 4 4 4 5 7 8 9 11 14 18 20 19 17 16 17 19 22 22 23 25 26 25 22 20 19 18 18 19 20 20 20 19 19 18 17 16 16 17 17 16 16 17 18 19 20 20 21 22 22 22 22 23 23 23 22
10 9 6 5 5 5 7 12 17 17 16 15 15 15 14 14 13 11 11 10 8 7 6 5 3 3 2 1 1 1 2 4 4 4 5 6 7 8 9 10 13 17 18 17 16 16 18 20 21 22 23 25 25 24 22 21 20 19 19 20 20 20 20 20 19 18 18 17 16 16 16 16 15 15 16 17 17 17 17 18 18 18 17 17 17 17 17
7 6 3 1 3 4 8 12 14 13 13 14 14 13 13 14 13 12 10 9 7 7 6 4 3 2 1 1 2 2 3 5 5 4 5 7 8 8 9 10 13 17 18 15 15 17 19 19 19 21 23 24 23 21 21 21 19 18 19 19 19 18 19 19 18 18 18 17 16 15 15 15 14 13 13 14 14 14 14 14 14 14 14 14 15 15 15
7 5 4 4 6 9 10 11 10 10 12 14 14 13 13 13 11 10 10 8 6 6 5 4 2 1 1 2 2 2 4 5 5 4 5 7 8 9 10 12 15 19 19 15 14 16 17 17 18 20 21 21 21 19 19 19 18 17 17 18 18 17 16 16 16 16 16 16 15 14 14 13 12 11 10 9 9 10 10 10 10 11 11 11 12 12 12
11 10 8 7 8 9 9 7 6 8 12 14 14 13 12 11 9 8 8 6 5 5 5 3 2 1 1 2 2 2 2 3 4 4 5 6 7 9 11 12 15 19 19 16 14 14 15 14 16 18 19 19 19 18 17 16 16 16 15 16 17 16 16 16 15 15 15 14 14 13 12 11 10 9 8 7 6 6 6 7 7 8 8 8 9 10 10
12 12 10 8 8 7 5 3 4 7 12 15 13 10 9 8 8 7 7 6 5 4 3 3 2 2 2 1 1 2 2 3 4 4 5 5 6 8 9 10 12 15 16 14 13 14 15 14 14 15 17 16 16 16 16 15 14 13 13 14 15 15 15 15 15 14 13 12 11 11 10 9 9 8 8 7 6 6 6 6 6 6 7 7 7 8 8
Wind_Direction
241 295 313 297 307 318 293 222 219 233 239 248 258 260 260 272 4 129 150 153 156 156 156 155 147 143 143 132 118 111 106 108 117 113 103 97 95 91 86 81 76 75 73 71 73 73 76 90 110 116 114 120 138 159 172 176 177 184 196 205 214 227 233 238 239 234 237 242 230 221 222 216 212 216 215 213 217 220 224 227 224 221 222 224 232 238 237
236 253 289 288 295 319 328 170 146 341 283 255 252 248 256 266 116 134 157 157 146 150 150 146 145 143 137 130 125 113 104 106 113 106 98 93 90 86 84 83 78 75 73 69 69 71 71 78 92 105 109 115 138 158 175 186 183 186 197 204 211 224 241 261 262 242 244 258 245 236 235 223 213 215 216 218 220 216 217 226 227 226 226 223 227 233 237
268 226 260 276 278 301 303 265 166 290 285 279 268 258 264 259 124 137 157 146 129 144 145 135 134 136 133 132 132 117 109 111 107 96 93 91 88 84 80 81 79 75 73 69 67 67 66 67 73 83 86 82 111 170 201 213 208 212 220 221 225 238 253 268 272 260 258 263 254 252 254 239 230 227 224 224 223 218 216 219 220 224 227 224 225 230 234
262 221 207 244 261 281 280 267 232 229 258 268 256 249 274 259 165 145 148 142 135 152 145 130 122 127 131 129 122 112 111 117 108 97 94 89 87 86 79 76 75 72 69 67 65 64 64 65 66 70 71 67 69 96 172 219 227 225 220 221 237 247 249 256 271 270 262 257 257 262 266 250 237 232 229 228 225 223 225 221 217 221 223 221 222 224 228
261 247 219 227 261 260 260 266 256 234 231 241 243 216 270 289 233 159 154 153 146 147 143 135 132 137 139 134 127 116 106 104 98 95 96 90 85 83 80 75 71 68 65 62 62 61 60 61 62 62 64 62 59 62 61 47 25 208 198 197 222 234 239 247 263 265 256 254 257 263 269 255 237 232 235 237 233 229 229 227 225 226 226 223 222 220 221
258 253 237 227 255 248 241 2 341 288 227 226 234 185 95 336 2 103 119 137 146 146 146 149 148 143 141 139 135 130 126 117 96 85 83 83 82 77 74 72 69 66 62 57 59 59 57 58 59 59 60 56 52 55 50 37 45 66 70 14 266 244 253 263 265 262 263 270 267 256 252 246 239 242 247 245 242 238 233 233 235 235 234 232 230 228 226
260 257 232 223 243 249 80 47 11 360 4 296 194 99 79 37 83 104 117 137 153 153 150 147 139 130 129 131 131 133 142 138 114 95 79 74 76 72 68 66 65 64 56 50 53 55 53 55 50 49 56 54 49 52 44 36 51 60 42 18 8 356 325 292 288 286 281 292 288 251 239 238 240 248 251 247 246 246 243 241 242 242 241 239 238 239 239
252 244 216 219 250 360 67 54 17 4 16 51 90 97 83 82 116 128 135 146 160 161 154 143 133 131 133 135 135 136 141 136 125 119 95 77 71 67 65 61 60 61 49 42 46 48 47 47 32 31 44 48 47 52 42 34 47 56 48 28 14 11 10 356 348 350 339 348 349 278 245 239 237 239 243 244 245 248 248 246 246 246 246 244 244 244 245
239 240 226 206 192 250 193 109 39 2 13 56 86 198 123 101 134 145 145 156 166 165 157 146 142 143 140 139 151 156 153 143 120 111 101 89 76 66 63 59 59 55 39 34 39 40 40 34 15 20 29 29 37 52 46 36 39 45 48 35 11 11 14 12 9 6 4 15 12 333 274 250 239 236 238 241 241 246 253 253 250 249 249 248 247 247 247
246 257 248 222 223 243 217 152 121 64 35 31 16 220 167 128 144 152 157 162 155 150 155 156 157 158 150 142 164 168 163 156 135 115 101 91 79 66 57 55 54 37 21 28 33 29 30 19 6 15 17 11 23 37 33 35 40 37 30 9 357 4 9 9 14 14 7 6 6 358 342 280 233 232 240 246 245 245 250 254 252 250 248 247 247 248 250
263 266 254 238 239 284 70 107 109 94 65 49 36 224 209 175 154 164 171 167 155 155 159 161 170 191 203 171 154 156 154 143 132 115 88 74 66 58 51 46 36 16 12 25 27 20 19 3 359 9 8 8 20 10 355 10 29 32 21 352 343 349 357 2 8 11 3 352 343 342 341 323 252 231 236 244 247 246 248 253 255 254 252 250 249 249 250
255 255 253 248 266 68 89 99 96 91 84 86 208 233 197 160 161 172 177 175 171 166 157 153 162 188 252 95 125 139 143 131 118 105 82 68 52 44 38 23 13 10 14 19 15 9 3 354 358 5 2 4 4 341 336 350 6 11 358 337 331 333 339 348 352 352 352 349 338 330 331 324 297 265 251 249 248 247 248 252 255 258 260 259 257 255 252
235 240 250 247 88 97 122 119 104 105 118 167 204 231 139 151 158 163 176 180 175 157 143 143 122 99 89 80 94 113 122 117 107 93 76 67 47 33 20 10 11 15 14 10 5 1 356 354 357 355 351 353 343 329 333 343 345 337 326 321 322 323 325 332 336 334 335 336 334 331 328 322 309 292 281 271 260 255 255 256 257 260 263 264 264 262 259
245 249 250 233 131 123 132 112 108 151 191 193 160 105 74 117 135 140 164 174 161 144 138 130 101 97 112 118 93 93 96 89 90 73 47 45 33 19 14 14 16 13 7 1 356 352 351 352 351 346 341 332 321 323 331 334 331 328 321 319 319 318 318 321 322 322 323 324 325 326 326 324 318 309 300 291 283 279 276 273 272 272 271 271 271 269 265
252 249 248 255 222 150 148 135 130 204 229 117 121 125 106 92 106 103 47 67 145 159 163 148 103 88 107 115 89 77 68 54 60 55 33 27 18 10 10 9 3 358 354 348 343 346 347 344 341 339 337 330 326 331 335 330 325 323 319 317 317 317 318 319 317 316 317 317 316 315 316 318 317 312 306 299 293 290 289 291 292 289 285 284 285 284 280
256 247 243 266 133 138 146 152 117 94 105 111 122 131 116 98 114 116 47 49 112 147 160 164 129 99 108 106 85 84 70 34 40 48 34 22 12 5 3 360 350 344 340 332 331 337 339 335 331 330 333 337 339 339 331 318 315 317 319 320 320 318 318 317 316 314 312 311 309 306 305 307 308 307 305 303 300 299 299 299 300 298 296 296 297 299 298
289 302 320 145 154 150 145 131 102 103 115 121 117 126 130 123 134 146 116 92 105 120 137 150 142 131 133 117 109 126 121 75 42 26 13 13 11 2 359 354 343 337 335 331 327 327 326 327 329 329 329 329 327 324 318 314 317 320 321 320 318 316 315 315 315 314 312 310 309 306 303 301 299 299 298 297 298 300 302 303 304 302 301 301 303 307 311
286 271 196 156 156 160 149 134 125 125 133 135 126 132 144 146 148 147 138 140 140 134 139 150 158 165 156 144 155 154 112 57 14 7 360 3 3 357 355 350 341 337 336 332 329 325 320 319 322 321 318 315 312 311 311 314 319 321 318 317 316 316 316 316 316 316 316 315 314 311 307 303 301 300 300 299 300 303 305 307 307 306 307 309 310 306 303
266 243 191 169 174 181 170 156 150 147 149 152 154 157 150 145 153 151 132 134 143 145 149 158 164 165 161 163 177 188 269 302 329 352 349 349 350 346 345 342 338 337 335 331 330 326 320 317 314 310 308 307 307 306 306 310 315 316 317 320 320 318 318 317 316 316 316 314 312 308 305 305 304 302 300 299 300 302 305 307 306 307 307 303 294 284 282
248 239 200 181 187 195 190 178 172 171 171 165 162 170 170 159 158 157 149 144 146 150 162 173 178 181 183 186 194 212 236 255 303 337 335 338 337 332 332 332 332 332 330 327 326 324 320 317 314 310 307 304 302 302 304 307 311 312 314 316 316 316 317 315 313 311 308 306 304 300 297 296 294 290 287 285 283 282 284 285 284 284 281 272 271 279 284
261 252 255 232 199 203 210 204 196 191 185 177 171 177 183 176 168 164 162 163 167 172 174 177 183 193 197 193 198 220 245 270 295 308 316 321 321 322 325 326 326 326 325 323 321 319 318 318 316 315 313 310 308 308 309 311 312 311 311 311 309 311 314 314 312 309 305 301 299 294 289 285 281 278 278 277 272 267 261 256 255 259 263 266 271 279 283
249 232 325 317 292 232 219 216 216 212 195 187 190 192 191 190 186 182 179 175 175 179 178 178 183 189 199 213 223 238 256 272 285 297 305 311 314 317 317 318 319 320 318 318 317 316 316 315 315 315 315 314 316 316 315 315 315 313 312 310 308 308 311 312 311 308 305 302 296 289 284 281 278 276 274 269 263 261 260 259 261 266 272 277 280 283 284
260 270 314 326 324 306 267 226 228 226 219 218 212 198 189 188 191 195 198 195 190 188 188 191 194 195 203 217 232 251 265 271 279 290 299 305 309 312 314 314 315 314 313 314 314 314 314 313 313 312 312 313 314 314 314 314 313 311 311 309 307 307 308 307 303 300 299 298 296 292 290 288 286 285 283 280 276 274 273 275 278 282 285 287 286 286 286
276 277 272 288 299 295 294 296 277 249 238 243 236 214 199 197 200 205 208 206 205 205 203 202 207 214 221 230 244 256 263 270 279 288 295 301 304 308 310 311 310 310 312 313 312 311 311 311 310 309 308 307 307 307 308 309 308 307 307 307 305 303 303 302 301 300 299 297 293 291 290 288 286 285 285 287 287 287 287 288 289 290 290 287 286 287 289
264 271 273 265 262 272 281 279 271 261 249 247 244 233 222 215 210 208 208 208 209 213 214 211 213 221 230 239 250 258 262 270 282 292 299 303 305 305 305 306 308 309 309 310 309 308 308 307 306 305 305 304 305 305 305 305 305 303 301 300 300 300 299 298 296 296 296 295 293 290 288 286 285 284 285 285 286 288 289 289 286 282 281 282 286 289 290
262 267 272 270 262 259 260 259 259 258 252 247 246 244 236 222 209 205 206 208 206 205 208 214 220 227 233 237 246 259 262 265 278 289 293 298 301 302 303 304 306 306 306 307 306 306 305 304 303 303 302 302 303 304 302 301 301 300 298 295 294 295 297 297 296 294 293 293 292 290 288 286 284 282 280 279 280 282 283 283 283 285 286 288 289 287 285
267 267 268 270 267 259 251 248 250 252 248 242 239 242 242 230 213 205 206 209 206 201 206 216 220 223 227 232 247 269 272 267 272 282 287 290 294 297 300 301 302 303 304 304 304 303 303 303 301 300 300 301 301 300 297 293 291 291 293 294 294 293 294 295 295 295 294 293 292 290 288 286 285 283 282 280 278 276 276 278 282 284 284 282 280 280 282
272 266 258 260 267 264 255 248 246 250 254 247 236 237 245 236 218 208 208 209 206 203 209 220 225 225 229 237 249 262 262 256 261 274 282 286 290 293 295 297 298 299 300 301 301 300 299 299 299 297 296 297 295 294 295 293 287 283 281 284 287 290 291 292 292 292 291 289 288 287 286 284 282 281 281 280 277 274 273 274 275 277 279 280 280 280 280
271 266 260 261 266 265 262 258 251 249 254 247 232 229 237 229 215 211 211 210 208 209 216 224 224 219 222 236 245 254 261 264 268 277 282 287 291 292 293 295 296 297 297 298 299 299 297 297 297 297 295 293 292 292 295 295 292 289 286 283 283 283 285 287 288 288 287 285 284 284 283 281 279 277 276 276 275 274 273 272 273 274 276 278 279 278 278
280 275 271 270 271 265 257 255 253 249 245 235 223 221 225 221 215 212 209 206 209 216 221 222 210 198 204 229 244 257 271 282 289 286 282 285 288 289 290 293 294 296 297 297 296 297 296 295 294 293 293 293 293 293 292 291 292 294 292 288 284 281 280 282 284 283 282 282 281 279 277 277 276 277 277 278 277 273 270 270 271 272 273 275 277 279 280
295 285 277 271 269 266 260 255 253 247 239 228 223 222 221 216 214 209 202 202 209 216 219 217 200 198 224 242 242 247 261 270 278 282 281 283 287 288 290 292 293 294 295 294 294 295 293 291 292 291 290 291 291 290 289 292 293 293 290 289 288 286 284 284 285 283 280 279 279 277 275 274 272 272 273 274 274 273 272 272 271 269 270 273 275 275 273
303 291 280 272 265 264 269 271 266 254 240 228 225 223 215 210 210 205 196 199 211 217 217 219 220 223 237 242 235 240 262 269 273 276 278 282 285 287 288 290 292 294 293 290 289 289 285 283 284 285 284 285 286 286 289 294 294 291 289 289 290 289 289 290 288 284 279 276 276 275 273 272 272 272 270 268 268 268 269 270 270 269 268 268 268 267 267
314 305 298 291 279 270 271 271 268 263 253 238 228 220 210 206 209 207 198 200 212 217 215 221 231 235 239 244 253 266 269 270 271 274 280 285 286 288 293 291 287 289 291 288 287 288 285 281 281 282 283 284 286 287 289 292 291 290 290 290 289 290 293 295 292 286 278 271 269 271 270 270 271 272 270 268 268 267 266 266 266 267 267 266 266 268 269
319 317 314 308 297 287 282 273 266 266 262 246 228 216 209 206 207 206 204 205 211 211 209 217 228 230 231 240 253 259 263 269 273 278 286 291 288 288 291 286 280 281 288 289 288 289 290 288 289 290 290 290 289 289 289 290 292 292 291 289 288 289 293 293 291 287 280 271 266 267 269 268 268 268 268 267 267 266 266 265 264 264 265 265 264 266 266
317 320 320 313 303 296 292 286 280 279 273 258 235 214 204 201 202 204 205 206 207 206 205 210 218 215 214 231 247 256 264 274 279 283 290 296 294 288 286 285 283 285 291 294 293 294 295 294 292 292 292 290 288 287 288 291 294 294 291 289 288 289 289 289 287 286 282 277 272 268 266 266 266 265 264 264 264 263 264 265 264 262 262 262 263 263 263
311 313 314 312 306 297 289 285 286 283 273 264 252 230 208 201 203 204 204 204 206 207 205 206 214 224 230 240 253 262 271 280 289 292 293 296 296 292 290 290 292 295 297 301 301 300 298 297 295 293 293 292 291 290 290 292 294 294 293 292 292 291 290 288 286 283 281 280 277 273 267 264 264 265 264 263 262 261 259 260 259 257 256 259 263 264 263
306 306 307 311 310 303 294 288 286 281 271 264 258 242 219 204 200 202 203 201 200 200 199 202 213 226 233 242 256 267 276 284 289 291 295 298 297 295 295 296 298 301 304 305 302 297 298 303 304 300 297 295 294 294 294 293 294 294 294 293 293 292 290 289 287 283 280 278 278 276 272 267 264 264 264 262 262 260 259 259 260 260 261 263 263 261 261
305 305 306 306 303 298 291 285 283 280 272 261 249 232 210 193 189 192 191 180 171 172 179 192 208 222 231 243 259 268 276 286 290 290 295 301 302 300 301 302 304 308 307 303 301 303 305 307 308 306 302 299 298 299 298 296 295 294 292 291 291 291 290 289 289 286 281 277 275 275 275 271 267 265 264 264 264 264 263 263 263 263 263 263 261 261 264
307 306 307 306 300 296 292 290 288 281 267 255 242 217 188 176 179 181 173 162 156 160 173 188 198 213 227 239 255 266 273 286 298 299 300 303 306 306 306 306 309 310 305 299 301 309 312 311 310 310 307 305 304 304 303 301 298 295 292 291 291 291 290 289 288 286 283 278 275 274 277 277 275 271 267 266 266 266 264 264 264 263 261 262 265 266 266
308 308 310 309 305 299 295 297 295 276 252 247 240 203 174 167 168 166 161 159 161 165 174 182 186 200 226 239 253 271 280 291 304 308 308 308 309 309 310 311 312 310 305 303 307 314 317 316 315 313 309 307 308 309 307 305 301 298 296 295 293 290 289 288 287 286 284 280 276 274 275 279 283 281 274 267 266 266 264 262 261 260 261 265 267 265 262
308 307 307 304 301 296 287 289 292 270 238 236 243 206 178 171 168 163 161 161 160 158 161 174 185 196 221 241 253 271 288 298 307 313 315 316 317 317 316 316 316 312 309 311 317 321 321 321 320 318 315 315 315 313 310 306 302 299 299 297 293 290 289 288 286 286 286 285 283 280 276 277 283 286 280 270 266 265 262 257 253 255 259 262 262 260 260
309 308 304 298 296 293 282 277 285 273 239 222 211 176 165 164 164 162 159 157 156 156 159 175 192 199 210 231 253 278 300 308 314 320 321 320 323 324 319 315 315 316 318 321 325 325 325 326 327 327 324 322 319 316 312 308 305 302 301 299 296 294 292 289 287 286 287 288 288 285 278 275 279 285 284 276 269 265 259 249 244 250 255 255 254 256 259
311 311 305 293 285 286 279 267 270 267 239 206 179 158 155 158 157 154 152 151 151 154 160 173 188 190 180 200 272 303 316 318 321 326 325 323 328 329 323 316 316 322 327 330 329 328 329 330 329 329 329 328 324 321 317 313 310 308 306 304 302 299 295 293 291 289 288 288 289 286 280 276 277 282 283 277 268 260 251 242 242 250 255 256 256 258 259
307 306 302 291 282 286 282 259 239 232 219 201 183 169 166 166 161 154 153 155 156 159 165 169 166 161 166 199 295 314 316 319 325 330 329 329 332 331 324 320 319 325 331 332 330 330 334 335 331 329 331 333 331 327 322 319 319 318 315 312 309 306 304 301 297 293 290 290 289 286 282 278 277 278 277 271 262 256 253 254 257 261 262 263 263 264 266
305 299 293 285 278 279 273 243 201 180 175 175 172 168 166 164 156 149 149 153 158 162 164 162 157 160 176 205 314 321 314 321 329 331 331 332 332 329 326 323 323 327 332 333 330 330 335 338 335 333 333 335 334 332 329 328 328 326 321 317 315 312 309 306 300 295 294 295 291 284 279 277 276 274 271 268 266 265 264 265 266 267 268 268 268 270 272
311 305 296 284 269 261 256 228 190 170 162 162 163 162 159 154 150 149 151 154 155 155 154 155 156 159 163 176 314 322 331 337 334 327 325 325 324 327 331 327 322 325 332 335 333 330 334 337 338 338 338 338 338 338 339 338 333 323 315 313 314 313 311 308 303 298 295 295 291 285 280 277 275 273 270 269 269 267 266 267 268 270 272 273 275 276 277
309 305 298 282 260 247 228 193 174 168 166 163 161 159 155 150 149 150 150 148 149 149 150 150 153 160 169 214 302 308 331 342 341 340 340 332 324 326 332 326 317 320 329 335 335 332 333 335 337 340 342 342 342 343 344 345 341 329 318 314 313 312 312 312 308 304 299 296 293 289 285 280 275 272 271 271 271 271 270 271 272 274 275 275 274 274 275
305 299 288 264 246 230 193 169 162 160 159 159 158 158 153 148 146 145 145 144 146 151 154 150 152 174 201 296 356 325 319 335 342 345 346 340 329 327 331 326 318 320 328 335 337 336 335 335 339 343 345 344 345 347 348 349 348 342 333 326 320 315 313 312 311 309 307 303 297 293 290 284 279 277 275 273 274 275 275 275 275 275 274 271 269 266 266
321 319 314 217 190 184 174 166 161 158 157 156 154 151 148 146 144 144 146 148 151 154 156 155 158 177 221 5 12 334 330 348 355 348 343 343 338 334 336 333 325 324 329 334 337 337 337 338 340 344 345 346 347 349 351 353 352 349 344 339 332 324 319 316 314 313 312 308 303 299 295 288 283 280 276 274 274 274 272 272 272 270 267 265 263 261 260
8 20 52 115 142 145 146 150 158 165 163 158 151 144 142 145 147 147 147 152 156 155 154 156 167 170 103 27 358 316 330 350 354 340 335 339 339 340 344 339 329 325 329 334 337 339 340 341 342 343 345 348 349 350 351 355 357 355 351 349 346 340 331 324 319 316 314 311 308 303 298 290 283 276 270 269 271 269 265 262 261 259 257 256 256 256 255
57 64 70 85 108 119 126 141 159 156 146 141 142 143 141 141 143 145 143 144 149 150 146 141 139 133 93 41 358 317 327 348 351 344 342 342 340 345 350 345 334 331 333 337 339 342 345 347 346 346 347 350 351 351 352 354 357 357 356 355 355 353 348 341 334 328 323 319 315 310 303 294 284 273 262 252 246 241 239 239 239 239 239 242 245 246 245
62 61 57 60 74 85 89 110 143 138 131 130 134 138 137 137 142 144 140 137 138 138 128 110 95 96 90 49 12 356 350 347 344 346 350 350 350 354 358 354 346 343 343 343 345 352 357 356 353 352 353 353 355 358 0 0 360 2 4 3 2 1 360 356 352 347 339 330 323 320 316 310 299 283 266 249 233 221 216 217 222 225 227 228 228 225 222